User: anonymous   Login
Location: Bruderhein
(53.8035°N, 112.9265°W)
Time: 13:37:54
(UTC+00:00)
Language:

Max Valier Satellite - Orbit

View from above orbital plane
View from above orbital plane
View from above satellite
View from above satellite

Ground track
Ground track

The orbit data is extracted from the following two-line orbital elements,

1 42778U 17036P   23090.82614503  .00030483  00000-0  89187-3 0  9992
2 42778  97.1683 127.6470 0009024  35.6811 324.5034 15.35162280320841
Epoch (UTC): 31 March 2023 19:49:38
Eccentricity: 0.0009024
inclination: 97.1683°
perigee height: 454 km
apogee height: 466 km
right ascension of ascending node: 127.6470°
argument of perigee: 35.6811°
revolutions per day: 15.35162280
mean anomaly at epoch: 324.5034°
orbit number at epoch: 32084

The dashed part of the orbit path shows where the satellite is in the earth's shadow,  

DLR